Lexington Weather

Lexington, Massachusetts, USA

29°F
4/1/2020 4:42am 
  • Lexington Conditions: Clear
  • Temperature: 29.3°F / -1.5°C 
  • Dew Point: 27.5°FIncreased 0.2°Fsince last hour.
  • Relative Humidity: 93%Increased 1.0% since last hour.
  • Wind: Calm, 10-min avg: Calm, gust: 1 mph
  • Barometer: 29.87 in Steady
  • Visibility: 10 miles
  • Snow Today: 0.0 in
  •   

Regional Weather Roundup
for Boston / Norton, MA

        
000
ASUS41 KBOX 300504
RWRBOX

REGIONAL WEATHER ROUNDUP
NATIONAL WEATHER SERVICE BOSTON/NORTON MA
100 AM EDT MON MAR 30 2020

NOTE:  "FAIR" INDICATES FEW OR NO CLOUDS BELOW 12,000 FEET WITH NO 
SIGNIFICANT WEATHER AND/OR OBSTRUCTIONS TO VISIBILITY.

MAZALL-300600-
EASTERN MASSACHUSETTS
  
CITY           SKY/WX    TMP DP  RH WIND       PRES   REMARKS
BOSTON         CLOUDY    40  38  93 NE18G25   29.96S WCI  31          
BEVERLY        CLOUDY    41  37  86 NE14G22   29.97S                  
LAWRENCE       CLOUDY    39  37  92 NE13G26   30.01R WCI  31          
BEDFORD        CLOUDY    40  37  89 NE15      29.96R WCI  32          
BLUE HILL        N/A     38  38 100 NE21G31   29.91R WCI  28          
NORWOOD        CLOUDY    42  38  85 NE9G16    29.95R                  
MARSHFIELD     CLOUDY    43  43 100 NE10G20   29.92S                  
PLYMOUTH       CLOUDY    41  40  96 NE16G23     N/A                   
TAUNTON        CLOUDY    41  39  93 N5        29.91R                  
NEW BEDFORD    CLOUDY    40  40 100 N10G20    29.88S                  
$$

MAZALL-300600-
CAPE COD AND THE ISLANDS
  
CITY           SKY/WX    TMP DP  RH WIND       PRES   REMARKS
FALMOUTH       CLOUDY    43  43 100 NE13G24   29.86F FOG              
HYANNIS        CLOUDY    45  42  89 NE14G21   29.84F FOG              
CHATHAM        CLOUDY    44  42  93 NE9       29.86F FOG              
PROVINCETOWN   CLOUDY    42  41  96 NE18G25   29.90F                  
NANTUCKET      LGT RAIN  49  47  93 NW13      29.83R FOG              
MARTHAS VNYRD  CLOUDY    44  42  93 N15       29.85F FOG              
$$
 
MAZALL-300600-
CENTRAL AND WESTERN MASSACHUSETTS
  
CITY           SKY/WX    TMP DP  RH WIND       PRES   REMARKS
WORCESTER      FOG       36  34  92 NE10G21   29.93F VSB 1/4 WCI  28  
FITCHBURG      CLOUDY    38  35  89 NE8       29.98F                  
ORANGE         CLOUDY    39  35  86 N7        29.97F                  
SPRINGFIELD    CLOUDY    39  38  95 NE9       29.95F                  
WESTFIELD      CLOUDY    38  36  92 N9        29.95F WCI  31          
NORTH ADAMS    CLOUDY    40  33  76 E13       29.96R                  
PITTSFIELD     CLOUDY    38  33  82 NE6       29.93S                  
$$
 
RIZALL-300600-
RHODE ISLAND
  
CITY           SKY/WX    TMP DP  RH WIND       PRES   REMARKS
PROVIDENCE     CLOUDY    42  40  92 N17G29    29.91S                  
NEWPORT        CLOUDY    43  39  86 N21G29    29.87F                  
BLOCK ISLAND   CLOUDY    41  40  96 N16G30    29.86F                  
SMITHFIELD     CLOUDY    39  39 100 NE16      29.93R WCI  30          
WESTERLY       CLOUDY    45  39  79 N12G21    29.87F                  
$$
 
CTZALL-300600-
CONNECTICUT
  
CITY           SKY/WX    TMP DP  RH WIND       PRES   REMARKS
BRADLEY INTL   CLOUDY    39  37  92 N14       29.94F WCI  31          
HARTFORD       CLOUDY    42  38  85 N10       29.95R                  
BRIDGEPORT     CLOUDY    44  40  85 N14       29.90R                  
DANBURY        CLOUDY    42  39  89 NE7       29.92R                  
GROTON         CLOUDY    41  41 100 N14       29.89R                  
NEW HAVEN      CLOUDY    43  40  89 N17G23    29.90R                  
CHESTER        CLOUDY    41  41 100 N12       29.90R                  
MERIDEN        CLOUDY    41  38  89 N13G18    29.93R                  
WILLIMANTIC    CLOUDY    41  38  89 N9        29.93S                  
OXFORD         CLOUDY    39  38  96 NE13      29.90S WCI  31          
$$

MEZ002-015-021-024-NHZ003-005-008-011-012-014-VTZ005-008-300600-
NORTHERN NEW ENGLAND
  
CITY           SKY/WX    TMP DP  RH WIND       PRES   REMARKS
PORTLAND ME    CLOUDY    38  34  85 NE16      30.07F WCI  29          
BANGOR ME      LGT SNOW  34  31  88 NE3       30.19R FOG              
CONCORD NH     CLOUDY    36  33  89 CALM      30.03S                  
MANCHESTER NH  CLOUDY    39  36  89 N10       30.00S                  
NASHUA NH      CLOUDY    38  38 100 NE7       30.01S                  
PORTSMOUTH NH  CLOUDY    39  36  88 NE14G22   30.00F WCI  31          
JAFFREY NH     CLOUDY    35  35 100 VRB5      29.97S WCI  31          
KEENE NH       CLOUDY    37  34  89 N7        30.00S WCI  32          
BURLINGTON VT  LGT RAIN  40  36  86 SE9       29.94R                  
MT. WASHINGTON FOG       25  25 100 S32G41      N/A  VSB 0   WCI   7  
$$

NYZ052-076-300600-
EASTERN NEW YORK
  
CITY           SKY/WX    TMP DP  RH WIND       PRES   REMARKS
ALBANY         DRIZZLE   45  38  76 W3        29.96R                  
NEW YORK CITY  DRIZZLE   47  45  93 N10       29.90R                  
$$
 
ANZALL-300600-
MARINE OBSERVATIONS
  
STATION/POSITION TIME  TEMP    WIND        PRES    VSBY  WAVE
                       AIR SEA DIR/SP/G                  HT/PER
                 (UTC) (F)     (DEG/KT/KT) (MB)    (MI)  (FT/S)
BOSTON BUOY      0450   42 43   50/ 21/ 27 1012.8F         6/ 7
BUZZARDS BAY     0400           10/ 21/ 23 1011.4F
NANTUCKET SOUND  0440                        N/A           2/ 5
MASS BAY-STELLWA 0404   41 42   70/ 19/ 23 1013.7   1 3/4  7/ 8
ISLE OF SHOALS   0400   40      60/ 23/ 26 1015.5F
S OF BLOCK IS    0430      44                N/A           8/ 8
$$

......................KEY.........................
  SKY/WX - SKY CONDITION/PRESENT WEATHER
  TMP    - TEMPERATURE IN FAHRENHEIT
  DWPT   - DEWPOINT IN FAHRENHEIT
  RH     - RELATIVE HUMIDITY IN PERCENT
  WIND   - DIRECTION AND SPEED IN MPH
  PRES   - MEAN SEA LEVEL PRESSURE IN INCHES OF HG
  WCI    - WIND CHILL INDEX
  VSB    - VISIBILITY IN MILES
  HX     - HEAT INDEX
  TC     - TEMPERATURE IN CELSIUS
  VRB    - VARIABLE WIND DIRECTION
  N/A    - NOT AVAILABLE
  
      

Other recent Regional Weather Roundups

Wed Apr 1, 4:05am

Wed Apr 1, 3:04am

Wed Apr 1, 2:04am

Wed Apr 1, 1:04am

Wed Apr 1, 12:04am

Tue Mar 31, 11:04pm

Tue Mar 31, 10:04pm

Tue Mar 31, 9:04pm

Tue Mar 31, 8:04pm

Tue Mar 31, 7:04pm

Tue Mar 31, 6:04pm

Tue Mar 31, 4:04pm

Tue Mar 31, 3:04pm

Tue Mar 31, 2:04pm

Tue Mar 31, 1:04pm

Tue Mar 31, 12:05pm

Tue Mar 31, 11:04am

Tue Mar 31, 10:05am

Tue Mar 31, 9:04am

Tue Mar 31, 8:04am

Tue Mar 31, 7:05am

Tue Mar 31, 6:04am

Tue Mar 31, 5:04am

Tue Mar 31, 4:04am

Tue Mar 31, 3:04am

Tue Mar 31, 2:04am

Tue Mar 31, 1:04am

Tue Mar 31, 12:04am

Mon Mar 30, 11:04pm

Mon Mar 30, 10:04pm

Mon Mar 30, 9:05pm

Mon Mar 30, 8:04pm

Mon Mar 30, 7:04pm

Mon Mar 30, 6:04pm

Mon Mar 30, 5:05pm

Mon Mar 30, 4:04pm

Mon Mar 30, 3:04pm

Mon Mar 30, 2:04pm

Mon Mar 30, 1:04pm

Mon Mar 30, 12:04pm

Mon Mar 30, 11:04am

Mon Mar 30, 10:04am

Mon Mar 30, 9:04am

Mon Mar 30, 8:04am

Mon Mar 30, 7:04am

Mon Mar 30, 6:04am

Mon Mar 30, 5:04am

Mon Mar 30, 4:04am

Mon Mar 30, 3:05am

Mon Mar 30, 2:04am

Mon Mar 30, 12:04am

Sun Mar 29, 11:04pm

Sun Mar 29, 10:05pm

Sun Mar 29, 9:04pm

Sun Mar 29, 8:04pm

Sun Mar 29, 7:04pm

Sun Mar 29, 6:04pm

Sun Mar 29, 5:05pm

Sun Mar 29, 4:04pm

Sun Mar 29, 3:04pm

Sun Mar 29, 2:04pm

Sun Mar 29, 1:05pm

Sun Mar 29, 12:04pm

Sun Mar 29, 11:04am

Sun Mar 29, 10:04am

Sun Mar 29, 9:04am

Sun Mar 29, 8:04am

Sun Mar 29, 7:04am

Sun Mar 29, 6:04am

Sun Mar 29, 5:04am

Meta data:

ID: 255e2e8b-e6c7-49ee-8a1c-99b8e350f391
Link: https://api.weather.gov/products/255e2e8b-e6c7-49ee-8a1c-99b8e350f391